Location: ???????
(60.4260°N, 46.9069°E)
Time: 07:14:36
(UTC+00:00)

Cosmos 2285 Rocket - Pass Details

Date: 30 March 2020
Orbit: 970 x 999 km, 74.0° (Epoch: 23 May)

Event Time Altitude Azimuth Distance (km) Brightness Sun altitude
Exits shadow 01:23:09 - 228° (SW) 2,955 5.9 -7.9°
Reaches altitude 10° 01:23:45 10° 229° (SW) 2,739 5.8 -7.8°
Maximum altitude 01:30:03 64° 311° (NW) 1,098 4.2 -7.1°
Drops below altitude 10° 01:36:27 10° 33° (NNE) 2,772 7.3 -6.3°
Sets 01:39:04 0° 36° (NE) 3,728 8.1 -6.0°
